Regional Weather Roundup
Issued by NWS

Home | Current Version | Previous Version | Graphics & Text | Print | Product List | Glossary On
Versions: 1 2 3 4 5 6 7 8 9 10 11 12 13 14 15 16 17 18 19 20 21 22 23 24 25 26 27 28 29 30 31 32 33 34 35 36 37 38 39 40 41 42 43 44 45 46 47 48 49 50
000
ASUS43 KFSD 200810
RWRSD

WEATHER ROUNDUP FOR SOUTH DAKOTA
NATIONAL WEATHER SERVICE SIOUX FALLS SD
300 AM CDT WED SEP 20 2017

NOTE: "FAIR" INDICATES FEW OR NO CLOUDS BELOW 12,000 FEET WITH NO
SIGNIFICANT WEATHER AND/OR OBSTRUCTIONS TO VISIBILITY.


SDZ001>005-009-010-012>017-200900-
NORTHWEST AND NORTH CENTRAL SOUTH DAKOTA

CITY           SKY/WX    TMP DP  RH WIND       PRES   REMARKS
BUFFALO          N/A     43  40  89 W12       29.64R
MOBRIDGE       PTCLDY    50  45  83 NW13      29.65R
$$

SDZ012>016-024>037-041>051-057-063-072>074-200900-
SOUTHWEST AND SOUTH CENTRAL SOUTH DAKOTA

CITY           SKY/WX    TMP DP  RH WIND       PRES   REMARKS
RAPID CTY ARPT NOT AVBL
PIERRE         MOCLDY    53  45  74 NW12      29.69R
CUSTER         CLEAR     32  24  72 SW5       29.80S WCI  27
ELLSWORTH AFB  CLEAR     42  39  88 W3        29.75S
PHILIP         CLEAR     45  44  97 W12       29.73R
SPEARFISH      FAIR      39  30  70 W7        29.75S
WINNER         FAIR      52  47  83 W6        29.76R
$$

SDZ004>011-016>023-039-040-200900-
NORTHEAST SOUTH DAKOTA

CITY           SKY/WX    TMP DP  RH WIND       PRES   REMARKS
ABERDEEN       CLOUDY    55  51  86 W12       29.64R
WATERTOWN      CLOUDY    57  56  96 SW8       29.59R
BROOKINGS      CLOUDY    59  56  89 S6        29.62S
SISSETON         N/A     59  58  96 SW7       29.53R
$$

SDZ017-020-022-023-036>040-048>070-200900-
SOUTHEAST SOUTH DAKOTA

CITY           SKY/WX    TMP DP  RH WIND       PRES   REMARKS
SIOUX FALLS    CLOUDY    60  60 100 CALM      29.66R
HURON          CLOUDY    56  52  86 W13       29.68R
CHAMBERLAIN    MOCLDY    55  51  86 NW6       29.72F
MITCHELL       CLOUDY    60  54  80 W8        29.70R
YANKTON        CLOUDY    61  57  87 SW5       29.70R
$$

ABBREVIATIONS USED IN REMARKS
   TC - TEMPERATURE IN CELSIUS
  WCI - WIND CHILL INDEX
   HX - HEAT INDEX
  VSB - VISIBILITY




USA.gov is the U.S. government's official web portal to all federal, state and local government web resources and services.